Sydney, Australia

8:32 PM AEDT on March 28, 2017 (GMT +1100)
Sydney

Weather History for 94767 - May, 2013

Change the Weather History Date:

Saturday, May 4, 2013

  Actual Average Record
Temperature  
Mean Temperature 65 °F -  
Max Temperature 75 °F 67 °F - ()
Min Temperature 55 °F 50 °F - ()
Growing Degree Days 15 (Base 50)    
Moisture  
Dew Point 47 °F    
Average Humidity 53    
Maximum Humidity 77    
Minimum Humidity 20    
Precipitation  
Precipitation 0.00 in 0.12 in - ()
Sea Level Pressure  
Sea Level Pressure 30.07 in    
Wind  
Wind Speed 10 mph ()    
Max Wind Speed 26 mph    
Max Gust Speed 38 mph    
Visibility 8.0 miles    
Events      
T = Trace of Precipitation, MM = Missing Value Source: Averaged Metar Reports

Daily Weather History Graph

Daily Weather History Graph

Search for Another Location

Airport or City:

Trip Planner

Search our weather history database for the weather conditions in past years. The results will help you decide how hot, cold, wet, or windy it might be!

Date:

Astronomy

May. 04, 2013 Rise Set
Actual Time 6:32 AM AEST 5:11 PM AEST
Civil Twilight 6:06 AM AEST 5:37 PM AEST
Nautical Twilight 5:36 AM AEST 6:07 PM AEST
Astronomical Twilight 5:07 AM AEST 6:36 PM AEST
Moon 12:42 AM AEST (5/4) 1:39 PM AEST (5/4)
Length of Visible Light 11h 31m
Length of Day
10h 39m
Waning Crescent, 33% of the Moon is Illuminated
May 4
Waning Crescent
May 10
New
May 18
First Quarter
May 25
Full
Jun 1
Last Quarter

Hourly Weather History & Observations

Time (AEST) Temp. Dew Point Humidity Pressure Visibility Wind Dir Wind Speed Gust Speed Precip Events Conditions
12:00 AM 59 °F 50 °F 64% 30.04 in 16 mi North 4.6 mph - -   Partly Cloudy
12:00 AM 59.0 °F 50.0 °F 72% 30.04 in - North 4.6 mph - N/A   Clear
12:30 AM 57.2 °F 50.0 °F 77% 30.04 in - West 5.8 mph - N/A   Clear
1:00 AM 59 °F 48 °F 59% 30.04 in - NW 6.9 mph - -  
1:00 AM 59.0 °F 48.2 °F 67% 30.04 in - NW 6.9 mph - N/A   Clear
1:30 AM 57.2 °F 48.2 °F 72% 30.01 in - NW 5.8 mph - N/A   Clear
2:00 AM 57.2 °F 50.0 °F 77% 30.01 in - North 5.8 mph - N/A   Clear
2:30 AM 57.2 °F 48.2 °F 72% 29.98 in - North 5.8 mph - N/A   Clear
3:00 AM 56 °F 49 °F 69% 29.98 in 12 mi North 5.8 mph - -   Haze
3:00 AM 55.4 °F 48.2 °F 77% 29.98 in - North 5.8 mph - N/A   Clear
3:30 AM 57.2 °F 48.2 °F 72% 29.98 in - NW 5.8 mph - N/A   Clear
4:00 AM 56 °F 48 °F 66% 29.98 in - WNW 6.9 mph - -  
4:00 AM 55.4 °F 48.2 °F 77% 29.98 in - WNW 6.9 mph - N/A   Clear
4:30 AM 55.4 °F 48.2 °F 77% 29.98 in - NW 5.8 mph - N/A   Clear
5:00 AM 57.2 °F 46.4 °F 67% 29.98 in - NNW 5.8 mph - N/A   Clear
5:30 AM 59.0 °F 44.6 °F 59% 29.98 in - West 3.5 mph - N/A   Clear
6:00 AM 59 °F 47 °F 54% 30.03 in 12 mi South 4.6 mph - -   Mostly Cloudy
6:00 AM 59.0 °F 46.4 °F 63% 30.01 in - South 4.6 mph - N/A   Clear
6:30 AM 59.0 °F 48.2 °F 67% 30.04 in - SW 5.8 mph - N/A   Clear
7:00 AM 60 °F 46 °F 50% 30.04 in - NNE 5.8 mph - -  
7:00 AM 59.0 °F 46.4 °F 63% 30.01 in - NNE 5.8 mph - N/A   Clear
7:30 AM 62.6 °F 44.6 °F 52% 30.01 in - NNW 11.5 mph - N/A   Clear
8:00 AM 62.6 °F 42.8 °F 48% 30.01 in - NW 8.1 mph - N/A   Clear
8:30 AM 62.6 °F 44.6 °F 52% 30.04 in - WNW 9.2 mph - N/A   Clear
9:00 AM 64 °F 43 °F 35% 30.06 in 19 mi West 8.1 mph - -   Mostly Cloudy
9:00 AM 64.4 °F 42.8 °F 45% 30.04 in - West 8.1 mph - N/A   Clear
9:30 AM 66.2 °F 41.0 °F 40% 30.04 in - WNW 10.4 mph - N/A   Clear
10:00 AM 68 °F 41 °F 25% 30.07 in - WNW 9.2 mph - -  
10:00 AM 68.0 °F 41.0 °F 37% 30.06 in - WNW 9.2 mph - N/A   Clear
10:30 AM 73.4 °F 37.4 °F 27% 30.04 in - NW 9.2 mph - N/A   Clear
11:00 AM 73.4 °F 35.6 °F 25% 30.04 in - NNW 11.5 mph - N/A   Clear
11:30 AM 73.4 °F 37.4 °F 27% 30.04 in - WNW 5.8 mph - N/A   Clear
12:00 PM 75 °F 42 °F 20% 30.03 in 19 mi WSW 11.5 mph - -   Partly Cloudy
12:00 PM 75.2 °F 41.0 °F 29% 30.01 in - WSW 11.5 mph - N/A   Clear
12:30 PM 75.2 °F 42.8 °F 31% 30.01 in - WSW 5.8 mph - N/A   Clear
1:00 PM 72 °F 51 °F 36% 30.02 in - South 18.4 mph - -  
1:00 PM 71.6 °F 50.0 °F 46% 30.01 in 6.2 mi South 18.4 mph - N/A   Partly Cloudy
1:30 PM 71.6 °F 48.2 °F 43% 30.01 in 6.2 mi South 18.4 mph - N/A   Partly Cloudy
1:43 PM 71.6 °F 50.0 °F 46% 30.01 in 6.2 mi South 21.9 mph 38.0 mph N/A   Partly Cloudy
2:00 PM 68.0 °F 57.2 °F 68% 30.04 in 5.6 mi SSE 25.3 mph - N/A   Partly Cloudy
2:30 PM 66.2 °F 55.4 °F 68% 30.06 in 6.2 mi South 26.5 mph - N/A   Scattered Clouds
3:00 PM 66 °F 55 °F 60% 30.09 in 7 mi SSE 25.3 mph - -   Haze
3:00 PM 66.2 °F 55.4 °F 68% 30.06 in 6.2 mi SSE 25.3 mph - N/A   Scattered Clouds
3:30 PM 66.2 °F 51.8 °F 60% 30.09 in 5.6 mi SSE 25.3 mph - N/A   Mostly Cloudy
4:00 PM 66 °F 48 °F 42% 30.11 in - SSE 26.5 mph - -  
4:00 PM 66.2 °F 48.2 °F 52% 30.09 in 6.2 mi SSE 26.5 mph - N/A   Mostly Cloudy
4:30 PM 64.4 °F 48.2 °F 56% 30.09 in 6.2 mi SSE 23.0 mph - N/A   Mostly Cloudy
5:00 PM 64.4 °F 50.0 °F 59% 30.12 in 6.2 mi SSE 24.2 mph - N/A   Mostly Cloudy
5:30 PM 64.4 °F 50.0 °F 59% 30.15 in 6.2 mi South 26.5 mph - N/A   Mostly Cloudy
6:00 PM 64 °F 47 °F 44% 30.18 in 9 mi South 23.0 mph - -   Haze
6:00 PM 64.4 °F 48.2 °F 56% 30.15 in 6.2 mi South 23.0 mph - N/A   Mostly Cloudy
6:30 PM 64.4 °F 46.4 °F 52% 30.18 in 6.2 mi South 23.0 mph - N/A   Mostly Cloudy
7:00 PM 64 °F 46 °F 41% 30.20 in - South 24.2 mph - -  
7:00 PM 64.4 °F 46.4 °F 52% 30.18 in 6.2 mi South 24.2 mph - N/A   Mostly Cloudy
7:30 PM 62.6 °F 46.4 °F 55% 30.21 in 6.2 mi South 24.2 mph - N/A   Mostly Cloudy
8:00 PM 62.6 °F 46.4 °F 55% 30.21 in 6.2 mi South 24.2 mph - N/A   Mostly Cloudy
9:00 PM 62 °F 43 °F 38% 30.23 in 12 mi SSE 21.9 mph - -   Partly Cloudy
9:00 PM 62.6 °F 42.8 °F 48% 30.21 in 6.2 mi SSE 21.9 mph - N/A   Mostly Cloudy
9:30 PM 62.6 °F 44.6 °F 52% 30.21 in 6.2 mi South 20.7 mph - N/A   Mostly Cloudy
10:00 PM 63 °F 46 °F 42% 30.25 in - South 18.4 mph - -  
10:00 PM 62.6 °F 46.4 °F 55% 30.24 in 6.2 mi South 18.4 mph - N/A   Mostly Cloudy
10:30 PM 62.6 °F 44.6 °F 52% 30.24 in 6.2 mi South 19.6 mph - N/A   Mostly Cloudy
11:00 PM 62.6 °F 44.6 °F 52% 30.21 in 6.2 mi South 20.7 mph - N/A   Mostly Cloudy
11:30 PM 62.6 °F 44.6 °F 52% 30.21 in 6.2 mi South 20.7 mph - N/A   Mostly Cloudy